Regional Weather Roundup
Issued by NWS

Home | Current Version | Previous Version | Graphics & Text | Print | Product List | Glossary Off
Versions: 1 2 3 4 5 6 7 8 9 10 11 12 13 14 15 16 17 18 19 20 21 22 23 24 25 26 27 28 29 30 31 32 33 34 35 36 37 38 39 40 41 42 43 44 45 46 47 48 49 50

000
ASUS43 KMKX 041021
RWRWI

WISCONSIN REGIONAL WEATHER ROUNDUP
NATIONAL WEATHER SERVICE MILWAUKEE/SULLIVAN WI
500 AM CDT TUE AUG 04 2015

NOTE: "FAIR" INDICATES FEW OR NO CLOUDS BELOW 12,000 FEET WITH NO
SIGNIFICANT WEATHER AND/OR OBSTRUCTIONS TO VISIBILITY.

WIZ001-002-006>008-014>016-023>028-041100-
NORTHWEST WISCONSIN

CITY           SKY/WX    TMP DP  RH WIND       PRES   REMARKS
SUPERIOR ARPT  CLEAR     49  48  99 SW3       29.91F
ASHLAND        PTCLDY    52  51  97 SW6       29.90S
HAYWARD        CLEAR     48  46  93 CALM      29.94R
SIREN          CLEAR     53  51  95 CALM      29.94S
CUMBERLAND     CLEAR     48  46  93 CALM      29.95R
RICE LAKE      FOG       49  48  95 CALM      29.95S VSB 1/2
CHETEK         CLEAR     54  53  97 CALM      29.94S
LADYSMITH      CLEAR     53  50  91 CALM      29.95R
EAU CLAIRE     CLEAR     55  51  86 MISG      29.93F
MENOMONIE      CLEAR     56  54  91 CALM      29.94S
NEW RICHMOND   CLEAR     51  51  99 CALM      29.95F
OSCEOLA        CLEAR     51  51 100 CALM      29.98S
$$

WIZ003>005-009-010-017-018-041100-
NORTH CENTRAL WISCONSIN

CITY           SKY/WX    TMP DP  RH WIND       PRES   REMARKS
MANITOWISH WTR CLOUDY    55  55 100 NW7       29.90S
ARBOR VITAE    PTCLDY    57  55  92 NW3       29.91R
WOODRUFF       PTCLDY    57  55  92 NW3       29.91R
RHINELANDER    PTCLDY    55  53  93 W6        29.91S
EAGLE RIVER    CLOUDY    54  54 100 W5        29.90R
LAND O LAKES   CLOUDY    57  56  95 W5        29.90S
PHILLIPS       CLEAR     53  52  98 CALM      29.92R
TOMAHAWK       CLOUDY    54  53  94 W3        29.92S
MEDFORD        CLEAR     52  51  97 W5        29.93S
MERRILL        NOT AVBL
$$

WIZ029-030-035-036-043>047-041100-
CENTRAL WISCONSIN

CITY           SKY/WX    TMP DP  RH WIND       PRES   REMARKS
WAUSAU         MOCLDY    59  55  87 NW6       29.91R
MOSINEE        PTCLDY    55  54  94 NW7       29.93R
MARSHFIELD     PTCLDY    57  51  80 NW9       29.93R
STEVENS POINT  CLEAR     58  53  84 W5        29.92R
WAUPACA        PTCLDY    58  54  85 CALM      29.90S
WAUTOMA        CLEAR     53  50  90 CALM      29.92S
WISC RAPIDS    PTCLDY    58  52  80 NW6       29.93S
CAMP DOUGLAS   PTCLDY    52  52 100 W5        29.92S
$$

WIZ011>013-019>022-031-037>040-048>050-041100-
NORTHEAST WISCONSIN

CITY           SKY/WX    TMP DP  RH WIND       PRES   REMARKS
ANTIGO         CLEAR     55  54  97 W6        29.91R
SHAWANO        CLEAR     55  53  93 CALM      29.89S
OCONTO         MOCLDY    54  54 100 CALM      29.87S
STURGEON BAY   PTCLDY    61  54  77 NW5       29.89S
GREEN BAY      PTCLDY    57  55  93 CALM      29.89R
MANITOWOC      CLOUDY    61  56  83 MISG      29.89S
APPLETON       PTCLDY    55  52  88 W3        29.91R
CLINTONVILLE   CLEAR     54  52  94 CALM      29.89S
OSHKOSH        CLEAR     60  52  74 W5        29.89S
$$

WIZ032>034-041-042-053>061-041100-
SOUTHWEST WISCONSIN

CITY           SKY/WX    TMP DP  RH WIND       PRES   REMARKS
LA CROSSE      CLEAR     60  56  86 CALM      29.93S
SPARTA         CLEAR     48  47  95 CALM      29.94S
VIROQUA        CLEAR     55  53  95 NW5       29.95R
BOSCOBEL       PTCLDY    54  52  93 SW3       29.94S
PRAIRIE DU CHI CLEAR     55  52  90 CALM      29.95R
PLATTEVILLE    CLEAR     57  55  92 SW3       29.95R
$$

WIZ056-057-062-063-064-067-068-041100-
SOUTH CENTRAL WISCONSIN

CITY           SKY/WX    TMP DP  RH WIND       PRES   REMARKS
REEDSBURG      CLEAR     53  52  97 CALM      29.92S
BARABOO/DELLS  CLEAR     54  49  83 CALM      29.92S
LONE ROCK      CLEAR     52  50  93 CALM      29.94S
MINERAL POINT  CLEAR     59  54  82 CALM      29.94S
MADISON        CLEAR     57  51  80 CALM      29.91S
MIDDLETON      CLEAR     55  51  87 CALM      29.93S
WATERTOWN      CLEAR     52  52 100 CALM      29.91S
MONROE         CLEAR     63  54  72 W8        29.93S
JANESVILLE     CLEAR     59  55  88 CALM      29.92S
$$

WIZ051-052-058>065-066-070>072-041100-
SOUTHEAST WISCONSIN

CITY           SKY/WX    TMP DP  RH WIND       PRES   REMARKS
MILWAUKEE      CLEAR     64  51  62 W6        29.91S
WAUKESHA       CLEAR     54  50  87 CALM      29.93S
MILWAUKEE/TIMM CLEAR     59  50  72 CALM      29.91S
RACINE         CLEAR     61  52  72 W8        29.93R
BURLINGTON     CLEAR     50  49  97 CALM      29.92S
KENOSHA        CLEAR     57  53  86 W3        29.92S
FOND DU LAC    MOCLDY    58  52  80 SW5       29.90S
SHEBOYGAN      MOCLDY    58  55  90 W5        29.89S
WEST BEND      CLEAR     55  52  88 CALM      29.91R
JUNEAU         CLEAR     54  51  91 SW3       29.92S
$$

LSZ147-162-041100-
LAKE SUPERIOR

STATION/POSITION TIME  TEMP    WIND        PRES    WAVE
                       AIR SEA DIR/SP/G            HT/PER
                 (UTC) (F)     (DEG/KT/KT) (MB)    (FT/S)
W MID LAKE BUOY  0950   56 56  360/  4/  6 1011.3R   1/ 4
DEVILS ISLAND    1000   56     280/ 11/ 12 1012.4R
PORT WING        0940   56     190/  4/  7 1012.9R
SAXON HARBOR     0900   60     200/  5     1011.5
$$

LMZ867-665-643>646-041100-
LAKE MICHIGAN

STATION/POSITION TIME  TEMP    WIND        PRES    WAVE
                       AIR SEA DIR/SP/G            HT/PER
                 (UTC) (F)     (DEG/KT/KT) (MB)    (FT/S)
CHAMBERS ISLAND  0900   62     230/  4/  8 1011.2R
S GREEN BAY BUOY 1000   64 71  290/ 10/ 12 1012.8F
N MID LAKE BUOY  0950   63 67  290/ 12/ 16 1010.0R   1/ 3
NORTHPORT PIER   0900   63     290/  3/  9 1010.8R
SISTER BAY       0918   64     320/ 16/ 20   N/A
ALGOMA LAKESHORE 0812           CALM  /  4   N/A
KEWAUNEE LAKESHO 0900   59     290/  4/  5 1011.1R
SHEBOYGAN LAKESH 1000   63     270/  8/ 10 1012.2R
PORT WASHINGTON  0900   63     270/  4/  6 1012.9S
ATWATER BUOY     1000   61 53  250/  6/  8 1013.9R
MILWAUKEE LAKESH 1000   66     280/  5/  7   N/A
KENOSHA   LAKESH 1000   64     270/  9/ 11 1012.9R
$$

TC  - TEMPERATURE IN CELSIUS
VSB - VISIBILITY IN STATUTE MILES
WCI - WIND CHILL INDEX
HX  - HEAT INDEX



USA.gov is the U.S. government's official web portal to all federal, state and local government web resources and services.